Weather Roundup
Issued by NWS

Home | Current Version | Previous Version | Graphics & Text | Print | Product List | Glossary Off
Versions: 1 2 3 4 5 6 7 8 9 10 11 12 13 14 15 16 17 18 19 20 21 22 23 24 25 26 27 28 29 30 31 32 33 34 35 36 37 38 39 40 41 42 43 44 45 46 47 48 49 50

000
NZUS93 KARX 192259
HRRWXR

CURRENT HOURLY OBSERVATIONS ACROSS
MUCH OF THE UPPER MISSISSIPPI VALLEY
NATIONAL WEATHER SERVICE LA CROSSE WI
600 PM CDT WED JUL 19 2017


...SOUTHEAST MINNESOTA...


CITY           SKY/WX    TMP DP  RH WIND       PRES   REMARKS
ROCHESTER      CLOUDY    67  66  97 S21G35    30.01F
ROCHESTER/MAYO NOT AVBL
WINONA         NOT AVBL
AUSTIN         TSTM      66  64  94 S7        29.97F
ALBERT LEA     NOT AVBL
DODGE CENTER   CLOUDY    66  64  94 SE13      29.94F
PRESTON        NOT AVBL
OWATONNA       CLOUDY    68  66  94 S10       29.96R
FARIBAULT      CLOUDY    68  66  94 SW5       29.93S
$$

...ELSEWHERE IN MINNESOTA...


CITY           SKY/WX    TMP DP  RH WIND       PRES   REMARKS
MINNEAPOLIS    CLOUDY    68  64  87 SE6       29.88F
INTNL FALLS    CLOUDY    71  60  68 SE6       29.90F
DULUTH         CLOUDY    74  61  63 SE7       29.94F
RED WING       CLOUDY    70  64  83 E7G21     29.87F
REDWOOD FALLS  CLOUDY    75  67  76 SE14      29.90F
MANKATO        CLOUDY    69  67  93 E9        29.93F
WORTHINGTON    NOT AVBL
FAIRMONT       CLOUDY    72  69  90 SE8       29.93F
$$

...SOUTHWEST WISCONSIN...


CITY           SKY/WX    TMP DP  RH WIND       PRES   REMARKS
LA CROSSE      LGT RAIN  83  71  67 E9        29.95F
PRAIRIE DU CHI CLOUDY    85  72  64 SE5       29.99S HX  90
BOSCOBEL       CLOUDY    86  74  67 VRB3      30.01S HX  94
LONE ROCK      NOT AVBL
PLATTEVILLE    CLOUDY    85  77  76 SE9       30.03S HX  96
FORT MC COY    CLOUDY    79  68  68 E5        30.02F
MAUSTON-NEW LI MOCLDY    81  69  67 SE6       30.02F
VIROQUA        CLOUDY    80  74  81 SE9       30.04R
WIS DELLS      MOSUNNY   83  68  59 SE9       30.04F
$$

...ELSEWHERE IN WISCONSIN...


CITY           SKY/WX    TMP DP  RH WIND       PRES   REMARKS
MILWAUKEE      PTSUNNY   76  58  53 E6        30.06F
MADISON        CLOUDY    80  71  74 SE9       30.03F
GREEN BAY      CLOUDY    79  65  62 S6        30.05F
EAU CLAIRE     NOT AVBL
BLACK RVR FLS  MOCLDY    78  62  57 E5        30.01F
MEDFORD        CLOUDY    73  56  55 SE9       30.01F
WAUSAU         CLOUDY    76  57  51 S9        30.03F
WIS RAPIDS     CLOUDY    80  61  52 S6        30.07S
MARSHFIELD     CLOUDY    77  59  53 CALM      30.08R
RICE LAKE      CLOUDY    73  59  61 SE10      29.94F
$$

...NORTHEAST IOWA...


CITY           SKY/WX    TMP DP  RH WIND       PRES   REMARKS
WATERLOO       CLOUDY    88  72  58 S5        30.01R HX  94
DUBUQUE        CLOUDY    85  75  72 S8        30.03S HX  93
DECORAH        CLOUDY    81  75  83 SE9       29.94F
MASON CITY     NOT AVBL
CHARLES CITY   RAIN      68  68 100 N10G17    30.06R
OELWEIN        CLOUDY    84  75  74 N29G39    30.09R HX  92
$$

...ELSEWHERE IN IOWA...


CITY           SKY/WX    TMP DP  RH WIND       PRES   REMARKS
DES MOINES     MOSUNNY   94  71  47 S17G23    29.95R HX 101
IOWA CITY      SUNNY     90  75  61 SE14      30.00F HX 100
FORT DODGE     MOSUNNY   91  72  52 S10G16    29.94F HX  98
MARSHALLTOWN   MOSUNNY   91  74  57 S9        29.98R HX 100
CEDAR RAPIDS   SUNNY     89  76  65 S13       29.99F HX 100
$$

...NORTHERN ILLINOIS...


CITY           SKY/WX    TMP DP  RH WIND       PRES   REMARKS
CHICAGO-OHARE  PTSUNNY   83  69  62 E7        30.05F
CHICAGO-MIDWAY CLOUDY    82  69  64 E9        30.05F
MOLINE         SUNNY     90  73  57 S7        30.01F HX  98
ROCKFORD       PTSUNNY   89  73  59 S5        30.03F HX  97
PEORIA         SUNNY     90  73  57 S8        30.03F HX  98
$$

NOTE: "FAIR" INDICATES FEW OR NO CLOUDS BELOW 12,000 FEET WITH NO
SIGNIFICANT WEATHER AND/OR OBSTRUCTIONS TO VISIBILITY. WIND
SPEEDS ARE IN MILES-PER-HOUR.




USA.gov is the U.S. government's official web portal to all federal, state and local government web resources and services.